Regional Weather Roundup
Issued by NWS

Home | Current Version | Previous Version | Text Only | Print | Product List | Glossary Off
Versions: 1 2 3 4 5 6 7 8 9 10 11 12 13 14 15 16 17 18 19 20 21 22 23 24 25 26 27 28 29 30 31 32 33 34 35 36 37 38 39 40 41 42 43 44 45 46 47 48 49 50

000
ASUS43 KIND 231300
RWRIN

WEATHER ROUNDUP FOR INDIANA
NATIONAL WEATHER SERVICE INDIANAPOLIS IN
900 AM EDT MON OCT 23 2017

NOTE: "FAIR" INDICATES FEW OR NO CLOUDS BELOW 12,000 FEET WITH NO
SIGNIFICANT WEATHER AND/OR OBSTRUCTIONS TO VISIBILITY.

* - STATION DOES NOT REPORT WEATHER SUCH AS PRECIPITATION OR FOG.

+ - STATION NOT QUALITY CONTROLLED BY THE NATIONAL WEATHER SERVICE.
    USE DATA WITH CAUTION...ESPECIALLY DEWPOINT AND RELATIVE
    HUMIDITY OBSERVATIONS.

INZ001>003-010>013-019-020-231400-
NORTHWEST INDIANA

CITY           SKY/WX    TMP DP  RH WIND       PRES   REMARKS
GARY /AIRPORT/ LGT RAIN  55  54  94 N12G23    29.87R
KNOX *+        CLOUDY    55  54  94 N6        29.81S
LA PORTE +     RAIN      55  53  95 N14G21    29.83S
MONTICELLO +   DRIZZLE   60  58  95 CALM      29.77S

$$

LMZ046-743>745-231400-
SOUTHERN LAKE MICHIGAN

STATION/POSITION TIME  TEMP    WIND        PRES    WAVE
                       AIR SEA DIR/SP/G            HT
                 (UTC) (F)     (DEG/KT/KT) (MB)    (FT)
BURNS HARBOR     1240   55      10/ 21/ 23 1011.2R
MICHIGAN CITY    1230   55      20/ 25/ 28   N/A
5NW MICH CITY    1250   56 58   20/ 17/ 23   N/A     6

$$

INZ004-005-014>016-021>024-231400-
NORTH CENTRAL INDIANA

CITY           SKY/WX    TMP DP  RH WIND       PRES   REMARKS
ELKHART        RAIN      57  57 100 N7        29.80F
GOSHEN         LGT RAIN  60  54  80 VRB5      29.81F
PERU/GRISSOM   DRIZZLE   61  61 100 SE7       29.77F
SOUTH BEND     LGT RAIN  55  55 100 N12       29.81F
WARSAW +       LGT RAIN  59  55  88 SE5       29.81S

$$

INZ006>009-017-018-025>027-231400-
NORTHEAST INDIANA

CITY           SKY/WX    TMP DP  RH WIND       PRES   REMARKS
AUBURN +       LGT RAIN  59  54  82 CALM      29.85S
FORT WAYNE     LGT RAIN  60  55  83 E5        29.82F
KENDALLVILLE + DRIZZLE   58  55  88 CALM      29.83F

$$

INZ028-029-035-036-043>045-051>053-231400-
WEST CENTRAL INDIANA

CITY           SKY/WX    TMP DP  RH WIND       PRES   REMARKS
LAFAYETTE      LGT RAIN  62  62 100 CALM      29.75F
TERRE HAUTE    LGT RAIN  64  62  93 SE5       29.74F

$$

INZ030>032-037>040-046>048-054>057-064-065-231400-
CENTRAL INDIANA

CITY           SKY/WX    TMP DP  RH WIND       PRES   REMARKS
ANDERSON       MOCLDY    61  57  88 SE6       29.79
COLUMBUS       CLOUDY    61  59  94 S13       29.78S
FRANKFORT +    DRIZZLE   63  61  94 S6        29.78F
GREENWOOD *+   CLOUDY    64  61  91 SE7       29.78S
INDIANAPOLIS   CLOUDY    62  59  90 S6        29.77S
-EAGLE CREEK   CLOUDY    62  58  86 CALM      29.76F
KOKOMO +       CLOUDY    60  59  96 E6        29.78F
MT COMFORT *+  CLOUDY    61  61 100 SE8       29.79R
SHELBYVILLE    CLOUDY    63  57  81 SE12      29.78R

$$

INZ033-034-041-042-049-050-058-059-231400-
EAST CENTRAL INDIANA

CITY           SKY/WX    TMP DP  RH WIND       PRES   REMARKS
MUNCIE         CLOUDY    64  55  72 SE7       29.80F
RICHMOND +     LGT RAIN  59  55  88 E12       29.83F

$$

INZ060-061-067>069-081>083-085>088-231400-
SOUTHWEST INDIANA

CITY           SKY/WX    TMP DP  RH WIND       PRES   REMARKS
EVANSVILLE     CLOUDY    54  52  93 W13       29.82R FOG
HUNTINGBURG +  LGT RAIN  59  57  93 SW16G31   29.80R

$$

INZ062-063-066-070>080-084-089>092-231400-
SOUTH CENTRAL AND SOUTHEAST INDIANA

CITY           SKY/WX    TMP DP  RH WIND       PRES   REMARKS
BLOOMINGTON    CLOUDY    63  60  90 S6        29.76S
MADISON *+     CLOUDY    61  59  94 S7        29.83F
SEYMOUR +      RAIN      63  63 100 S9        29.80R

$$




USA.gov is the U.S. government's official web portal to all federal, state and local government web resources and services.